Zurück zum Katalog

GAOFEN 7

AktivWissenschaftSSO
NORAD 44703·PAYLOAD·🇨🇳 China

Gestartet Nov 3, 2019 von Taiyuan Satellite Launch Center

Loading…

Nächste Überflüge (nächste 24 Stunden)

TLE

AktuellSource: Space-Track

Epoche: Sep 14, 2026, 14:15 UTC

1 44703U 19072A   26257.59376359  .00003191  00000-0  14520-3 0  9995
2 44703  97.5628 318.6159 0020113  95.1822 265.1709 15.21282169381238

Verfolge GAOFEN 7 in Echtzeit mit AllMySat

Download on the App Store